TimeCDT,TemperatureF,Dew PointF,Humidity,Sea Level PressureIn,VisibilityMPH,Wind Direction,Wind SpeedMPH,Gust SpeedMPH,PrecipitationIn,Events,Conditions,WindDirDegrees,DateUTC
12:52 AM,36.0,24.1,62,30.17,10.0,WNW,8.1,-,N/A,,Clear,300,2012-10-06 05:52:00
1:52 AM,36.0,24.1,62,30.18,10.0,West,5.8,-,N/A,,Clear,280,2012-10-06 06:52:00
2:52 AM,33.1,24.1,70,30.18,10.0,West,5.8,-,N/A,,Clear,270,2012-10-06 07:52:00
3:52 AM,32.0,24.1,73,30.18,10.0,West,5.8,-,N/A,,Clear,280,2012-10-06 08:52:00
4:52 AM,30.9,24.1,76,30.20,10.0,West,6.9,-,N/A,,Clear,270,2012-10-06 09:52:00
5:52 AM,33.1,25.0,72,30.20,10.0,WNW,8.1,-,N/A,,Clear,290,2012-10-06 10:52:00
6:52 AM,30.2,24.8,80,30.19,10.0,WSW,5.8,-,N/A,,Clear,240,2012-10-06 11:52:00
7:52 AM,34.0,25.0,70,30.22,10.0,WNW,10.4,-,N/A,,Clear,300,2012-10-06 12:52:00
8:52 AM,37.0,26.1,65,30.23,10.0,WNW,13.8,-,N/A,,Clear,290,2012-10-06 13:52:00
9:52 AM,39.0,27.0,62,30.24,10.0,NW,15.0,20.7,N/A,,Clear,310,2012-10-06 14:52:00
10:52 AM,42.1,28.0,58,30.23,10.0,NW,12.7,-,N/A,,Clear,310,2012-10-06 15:52:00
11:52 AM,44.1,28.0,53,30.24,10.0,NW,12.7,-,N/A,,Mostly Cloudy,320,2012-10-06 16:52:00
12:52 PM,48.0,28.0,46,30.23,10.0,NW,11.5,-,N/A,,Mostly Cloudy,320,2012-10-06 17:52:00
1:52 PM,46.9,27.0,46,30.22,10.0,WNW,11.5,-,N/A,,Mostly Cloudy,300,2012-10-06 18:52:00
2:52 PM,46.0,27.0,47,30.22,10.0,NW,15.0,-,N/A,,Overcast,320,2012-10-06 19:52:00
3:52 PM,45.0,27.0,49,30.22,10.0,NW,9.2,-,N/A,,Overcast,310,2012-10-06 20:52:00
4:52 PM,45.0,27.0,49,30.22,10.0,NNW,10.4,-,N/A,,Overcast,330,2012-10-06 21:52:00
5:52 PM,44.1,27.0,51,30.22,10.0,NNW,8.1,-,N/A,,Overcast,330,2012-10-06 22:52:00
6:52 PM,44.1,27.0,51,30.23,10.0,WNW,5.8,-,N/A,,Overcast,300,2012-10-06 23:52:00
7:52 PM,43.0,28.0,56,30.23,10.0,WNW,5.8,-,N/A,,Overcast,300,2012-10-07 00:52:00
8:52 PM,43.0,27.0,53,30.24,10.0,NW,5.8,-,N/A,,Overcast,310,2012-10-07 01:52:00
9:52 PM,43.0,26.1,51,30.24,10.0,NW,8.1,-,N/A,,Overcast,310,2012-10-07 02:52:00
10:52 PM,42.1,27.0,55,30.25,10.0,NW,6.9,-,N/A,,Overcast,320,2012-10-07 03:52:00
11:52 PM,42.1,27.0,55,30.24,10.0,NW,6.9,-,N/A,,Overcast,320,2012-10-07 04:52:00